timestamp,wind_dir_avg,wind_spd_avg,wind_spd_max_dir,wind_spd_gust,battery_voltage,lat,long
2023-05-05 00:04:00+00:00,36.0,12.24,37.0,13.89,12.57,47.59359,-54.27349
2023-05-05 00:14:00+00:00,34.0,12.76,36.0,14.17,12.33,47.59359,-54.27349
2023-05-05 00:24:00+00:00,34.0,12.83,34.0,14.07,12.33,47.59359,-54.27349
2023-05-05 00:34:00+00:00,32.0,12.23,32.0,14.26,12.33,47.59359,-54.27349
2023-05-05 00:44:00+00:00,33.0,12.45,32.0,14.25,12.33,47.59359,-54.27349
2023-05-05 00:54:00+00:00,31.0,13.0,30.0,14.26,12.33,47.59359,-54.27349
2023-05-05 01:04:00+00:00,32.0,13.79,33.0,15.6,12.33,47.59359,-54.27349
2023-05-05 01:14:00+00:00,34.0,13.24,33.0,15.09,12.33,47.59359,-54.27349
2023-05-05 01:24:00+00:00,35.0,13.48,33.0,15.3,12.33,47.59359,-54.27349
2023-05-05 01:34:00+00:00,33.0,13.81,30.0,15.41,12.33,47.59359,-54.27349
2023-05-05 01:44:00+00:00,33.0,13.46,30.0,16.08,12.33,47.59359,-54.27349
2023-05-05 01:54:00+00:00,34.0,14.02,32.0,15.61,12.33,47.59359,-54.27349
2023-05-05 02:04:00+00:00,34.0,14.3,33.0,16.07,12.33,47.59359,-54.27349
2023-05-05 02:14:00+00:00,35.0,13.96,34.0,15.63,12.33,47.59359,-54.27349
2023-05-05 02:24:00+00:00,34.0,14.06,33.0,15.85,12.33,47.59359,-54.27349
2023-05-05 02:34:00+00:00,34.0,14.25,32.0,15.73,12.33,47.59359,-54.27349
2023-05-05 02:44:00+00:00,33.0,14.44,29.0,16.24,12.33,47.59359,-54.27349
2023-05-05 02:54:00+00:00,33.0,14.26,29.0,15.78,12.33,47.59359,-54.27349
2023-05-05 03:04:00+00:00,35.0,14.33,32.0,15.75,12.33,47.59359,-54.27349
2023-05-05 03:14:01+00:00,36.0,13.4,33.0,14.94,12.25,47.59359,-54.27349
2023-05-05 03:24:01+00:00,33.0,14.19,32.0,15.57,12.25,47.59359,-54.27349
2023-05-05 03:34:01+00:00,32.0,14.37,32.0,15.8,12.25,47.59359,-54.27349
2023-05-05 03:44:01+00:00,31.0,14.16,25.0,16.17,12.25,47.59359,-54.27349
2023-05-05 03:54:01+00:00,31.0,15.08,34.0,16.85,12.25,47.59359,-54.27349
2023-05-05 04:04:01+00:00,33.0,14.49,36.0,16.47,12.25,47.59359,-54.27349
2023-05-05 04:14:00+00:00,32.0,14.87,38.0,17.35,12.25,47.59359,-54.27349
2023-05-05 04:24:00+00:00,34.0,13.6,33.0,15.73,12.25,47.59359,-54.27349
2023-05-05 04:34:00+00:00,35.0,13.76,33.0,15.05,12.25,47.59359,-54.27349
2023-05-05 04:44:00+00:00,36.0,13.77,47.0,16.41,12.25,47.59359,-54.27349
2023-05-05 04:54:00+00:00,33.0,15.3,39.0,18.18,12.25,47.59359,-54.27349
2023-05-05 05:04:00+00:00,33.0,14.61,33.0,16.4,12.25,47.59359,-54.27349
2023-05-05 05:14:00+00:00,34.0,14.2,37.0,16.99,12.17,47.59359,-54.27349
2023-05-05 05:24:00+00:00,33.0,14.13,32.0,16.35,12.17,47.59359,-54.27349
2023-05-05 05:34:00+00:00,33.0,14.53,30.0,15.85,12.17,47.59359,-54.27349
2023-05-05 05:44:00+00:00,34.0,14.58,29.0,15.74,12.17,47.59359,-54.27349
2023-05-05 05:54:00+00:00,33.0,13.88,34.0,15.46,12.17,47.59359,-54.27349
2023-05-05 06:04:00+00:00,34.0,14.17,27.0,17.38,12.17,47.59359,-54.27349
2023-05-05 06:14:00+00:00,33.0,13.86,33.0,15.31,12.17,47.59359,-54.27349
2023-05-05 06:24:00+00:00,32.0,14.67,28.0,16.11,12.17,47.59359,-54.27349
2023-05-05 06:34:00+00:00,34.0,13.94,30.0,15.87,12.17,47.59359,-54.27349
2023-05-05 06:44:00+00:00,36.0,13.25,32.0,15.19,12.17,47.59359,-54.27349
2023-05-05 06:54:00+00:00,32.0,14.18,40.0,16.66,12.17,47.59359,-54.27349
2023-05-05 07:04:00+00:00,30.0,14.86,28.0,16.6,12.17,47.59359,-54.27349
2023-05-05 07:14:00+00:00,31.0,14.33,28.0,15.64,12.17,47.59359,-54.27349
2023-05-05 07:24:00+00:00,32.0,14.76,36.0,16.86,12.17,47.59359,-54.27349
2023-05-05 07:34:00+00:00,32.0,16.43,35.0,18.89,12.17,47.59359,-54.27349
2023-05-05 07:44:00+00:00,36.0,13.28,31.0,16.66,12.17,47.59359,-54.27349
2023-05-05 07:54:00+00:00,35.0,13.04,38.0,15.21,12.17,47.59359,-54.27349
2023-05-05 08:04:00+00:00,33.0,12.75,29.0,16.33,12.17,47.59359,-54.27349
2023-05-05 08:14:01+00:00,35.0,13.17,35.0,15.99,12.09,47.59359,-54.27349
2023-05-05 08:24:01+00:00,37.0,12.48,39.0,14.18,12.09,47.59359,-54.27349
2023-05-05 08:34:01+00:00,37.0,11.87,38.0,13.65,12.09,47.59359,-54.27349
2023-05-05 08:44:01+00:00,40.0,10.82,37.0,12.55,12.09,47.59359,-54.27349
2023-05-05 08:54:01+00:00,37.0,13.01,36.0,14.59,12.09,47.59359,-54.27349
2023-05-05 09:04:01+00:00,35.0,13.07,40.0,17.44,12.09,47.59359,-54.27349
2023-05-05 10:14:00+00:00,33.0,11.92,35.0,13.54,12.41,47.59359,-54.27349
2023-05-05 10:24:00+00:00,34.0,14.38,33.0,16.53,12.41,47.59359,-54.27349
2023-05-05 10:34:00+00:00,32.0,12.92,33.0,15.8,12.41,47.59359,-54.27349
2023-05-05 10:44:00+00:00,30.0,14.2,29.0,15.56,12.41,47.59359,-54.27349
2023-05-05 10:54:00+00:00,33.0,13.29,31.0,15.27,12.41,47.59359,-54.27349
2023-05-05 11:04:00+00:00,31.0,14.82,33.0,17.28,12.41,47.59359,-54.27349
2023-05-05 11:14:00+00:00,33.0,15.05,31.0,16.76,13.37,47.59359,-54.27349
2023-05-05 11:24:00+00:00,32.0,14.94,30.0,17.1,13.37,47.59359,-54.27349
2023-05-05 11:34:00+00:00,35.0,15.17,35.0,17.48,13.37,47.59359,-54.27349
2023-05-05 11:44:00+00:00,32.0,15.43,30.0,17.11,13.37,47.59359,-54.27349
2023-05-05 11:54:00+00:00,38.0,13.51,44.0,16.42,13.37,47.59359,-54.27349
2023-05-05 12:04:00+00:00,34.0,14.62,33.0,16.83,13.37,47.59359,-54.27349
2023-05-05 12:14:00+00:00,34.0,14.17,34.0,16.69,13.6,47.59359,-54.27349
2023-05-05 12:24:00+00:00,35.0,15.78,31.0,19.01,13.6,47.59359,-54.27349
2023-05-05 12:34:00+00:00,30.0,17.1,28.0,19.01,13.6,47.59359,-54.27349
2023-05-05 12:44:00+00:00,31.0,16.25,33.0,18.87,13.6,47.59359,-54.27349
2023-05-05 12:54:00+00:00,32.0,17.19,33.0,20.97,13.6,47.59359,-54.27349
2023-05-05 13:04:00+00:00,35.0,14.86,29.0,17.08,13.6,47.59359,-54.27349
2023-05-05 13:14:00+00:00,32.0,13.95,33.0,15.64,13.68,47.59359,-54.27349
2023-05-05 13:24:00+00:00,31.0,13.09,32.0,15.11,13.68,47.59359,-54.27349
2023-05-05 13:34:00+00:00,29.0,13.09,35.0,15.29,13.68,47.59359,-54.27349
2023-05-05 13:44:00+00:00,29.0,13.41,30.0,15.21,13.68,47.59359,-54.27349
2023-05-05 13:54:00+00:00,33.0,13.22,31.0,16.05,13.68,47.59359,-54.27349
2023-05-05 14:04:00+00:00,27.0,13.96,28.0,16.14,13.68,47.59359,-54.27349
2023-05-05 14:14:00+00:00,31.0,12.66,33.0,14.31,13.6,47.59359,-54.27349
2023-05-05 14:24:00+00:00,31.0,14.48,33.0,16.39,13.6,47.59359,-54.27349
2023-05-05 14:34:00+00:00,36.0,13.0,28.0,16.67,13.6,47.59359,-54.27349
2023-05-05 14:44:00+00:00,35.0,10.62,33.0,12.35,13.6,47.59359,-54.27349
2023-05-05 14:54:00+00:00,42.0,11.0,38.0,12.82,13.6,47.59359,-54.27349
2023-05-05 15:04:00+00:00,40.0,11.66,39.0,12.83,13.6,47.59359,-54.27349
2023-05-05 15:14:00+00:00,45.0,12.77,49.0,14.38,13.53,47.59359,-54.27349
2023-05-05 15:24:00+00:00,42.0,12.65,46.0,14.47,13.53,47.59359,-54.27349
2023-05-05 15:34:00+00:00,41.0,12.96,46.0,14.67,13.53,47.59359,-54.27349
2023-05-05 15:44:00+00:00,38.0,13.11,35.0,15.18,13.53,47.59359,-54.27349
2023-05-05 15:54:00+00:00,37.0,10.65,35.0,12.34,13.53,47.59359,-54.27349
2023-05-05 16:04:00+00:00,34.0,11.19,39.0,12.97,13.53,47.59359,-54.27349
2023-05-05 16:14:00+00:00,29.0,10.28,28.0,11.32,13.6,47.59359,-54.27349
2023-05-05 16:24:00+00:00,37.0,11.11,37.0,12.9,13.6,47.59359,-54.27349
2023-05-05 16:34:00+00:00,36.0,11.72,38.0,13.04,13.6,47.59359,-54.27349
2023-05-05 16:44:00+00:00,39.0,10.48,37.0,12.12,13.6,47.59359,-54.27349
2023-05-05 16:54:00+00:00,36.0,10.71,34.0,12.57,13.6,47.59359,-54.27349
2023-05-05 17:04:00+00:00,44.0,11.09,42.0,12.7,13.6,47.59359,-54.27349
2023-05-05 17:14:01+00:00,42.0,10.58,45.0,11.91,13.68,47.59359,-54.27349
2023-05-05 17:24:01+00:00,42.0,11.36,37.0,13.11,13.68,47.59359,-54.27349
2023-05-05 17:34:01+00:00,41.0,14.05,44.0,17.11,13.68,47.59359,-54.27349
2023-05-05 17:44:01+00:00,38.0,14.1,36.0,16.55,13.68,47.59359,-54.27349
2023-05-05 17:54:01+00:00,40.0,14.56,47.0,18.38,13.68,47.59359,-54.27349
2023-05-05 18:04:01+00:00,42.0,12.53,42.0,16.02,13.68,47.59359,-54.27349
2023-05-05 18:14:00+00:00,39.0,14.28,37.0,16.99,14.4,47.59359,-54.27349
2023-05-05 18:24:00+00:00,41.0,15.82,40.0,18.66,14.4,47.59359,-54.27349
2023-05-05 18:34:00+00:00,39.0,14.24,37.0,17.09,14.4,47.59359,-54.27349
2023-05-05 18:44:00+00:00,38.0,13.3,40.0,15.53,14.4,47.59359,-54.27349
2023-05-05 18:54:00+00:00,41.0,14.85,43.0,19.04,14.4,47.59359,-54.27349
2023-05-05 19:04:00+00:00,40.0,15.49,41.0,17.98,14.4,47.59359,-54.27349
2023-05-05 19:14:00+00:00,42.0,14.79,43.0,16.48,13.6,47.59359,-54.27349
2023-05-05 19:24:00+00:00,39.0,12.83,47.0,14.59,13.6,47.59359,-54.27349
2023-05-05 19:34:00+00:00,41.0,12.16,45.0,15.21,13.6,47.59359,-54.27349
2023-05-05 19:44:00+00:00,43.0,12.45,35.0,16.0,13.6,47.59359,-54.27349
2023-05-05 19:54:00+00:00,46.0,11.99,56.0,15.31,13.6,47.59359,-54.27349
2023-05-05 20:04:00+00:00,48.0,11.6,57.0,15.84,13.6,47.59359,-54.27349
2023-05-05 20:14:00+00:00,44.0,10.17,41.0,11.23,13.68,47.59359,-54.27349
2023-05-05 20:24:00+00:00,51.0,9.29,52.0,11.6,13.68,47.59359,-54.27349
2023-05-05 20:34:00+00:00,44.0,10.95,47.0,13.03,13.68,47.59359,-54.27349
2023-05-05 20:44:00+00:00,39.0,10.95,39.0,11.95,13.68,47.59359,-54.27349
2023-05-05 20:54:00+00:00,37.0,11.04,40.0,12.36,13.68,47.59359,-54.27349
2023-05-05 21:04:00+00:00,39.0,9.62,39.0,10.65,13.68,47.59359,-54.27349
2023-05-05 21:14:01+00:00,40.0,9.79,38.0,11.23,13.68,47.59359,-54.27349
2023-05-05 21:24:01+00:00,43.0,9.21,41.0,10.14,13.68,47.59359,-54.27349
2023-05-05 21:34:01+00:00,46.0,8.67,42.0,9.97,13.68,47.59359,-54.27349
2023-05-05 21:44:01+00:00,45.0,8.01,46.0,9.03,13.68,47.59359,-54.27349
2023-05-05 21:54:01+00:00,36.0,8.96,37.0,9.66,13.68,47.59359,-54.27349
2023-05-05 22:04:01+00:00,35.0,8.91,36.0,10.34,13.68,47.59359,-54.27349
2023-05-05 22:14:00+00:00,22.0,9.16,30.0,10.17,13.44,47.59359,-54.27349
2023-05-05 22:24:00+00:00,23.0,9.79,28.0,10.57,13.44,47.59359,-54.27349
2023-05-05 22:34:00+00:00,24.0,9.75,24.0,10.79,13.44,47.59359,-54.27349
2023-05-05 22:44:00+00:00,22.0,10.53,22.0,11.67,13.44,47.59359,-54.27349
2023-05-05 22:54:00+00:00,29.0,8.26,34.0,10.33,13.44,47.59359,-54.27349
2023-05-05 23:04:00+00:00,17.0,11.91,11.0,13.28,13.44,47.59359,-54.27349
2023-05-05 23:14:00+00:00,20.0,10.62,18.0,12.39,12.81,47.59359,-54.27349
2023-05-05 23:24:00+00:00,19.0,11.31,19.0,12.89,12.81,47.59359,-54.27349
2023-05-05 23:34:00+00:00,22.0,10.53,22.0,11.73,12.81,47.59359,-54.27349
2023-05-05 23:44:00+00:00,26.0,9.32,30.0,10.22,12.81,47.59359,-54.27349
2023-05-05 23:54:00+00:00,20.0,10.59,23.0,12.27,12.81,47.59359,-54.27349
